If you wish to contribute or participate in the discussions about articles you are invited to join SKYbrary as a registered user

 Actions

Saint-Dizier-Robinson (BA 113) Air Base

From SKYbrary Wiki

LFSI
Airport
ICAO: LFSI
Summary
Name Saint-Dizier-Robinson (BA 113) Air Base
Region Europe
Territory France FR.gif
Location , Champagne-Ardenne
Serving St.-dizier
Elevation 139.598 m
458 ft
458 ft139.598 m
Type medium airport
Coordinates 48° 38' 9.63" N, 4° 53' 57.90" E
Runways
Designator Length Width Surface ROPS
11/29 2412 m7,913.386 ft
45 m147.638 ft
ASP /


METAR
Observation LFSI 191800Z AUTO 30009KT CAVOK 22/08 Q1019
Station St-Dizier
Date/Time 19 August 2019 18:00:00
Wind direction 300°
Wind speed 09 kts
Lowest cloud amount clouds and visibility OK
Temperature 22°C
Dew point 8°C
Humidity 40%
QNH 1019 hPa
Weather condition n/a